Precipitable_Water
0.65 0.86 1.05 1.21 1.33 1.56 1.53 1.45 1.37 1.32 1.13 0.88 0.73 0.66 0.58 0.61 0.61 0.60 0.59 0.61 0.62 0.64 0.62 0.59 0.56 0.55 0.53 0.56 0.61 0.61 0.58 0.58 0.59 0.53 0.53 0.55 0.57 0.55 0.54 0.53 0.53 0.57 0.61
0.43 0.69 0.87 1.04 1.20 1.37 1.50 1.45 1.40 1.36 1.27 1.13 0.96 0.85 0.71 0.64 0.62 0.62 0.61 0.64 0.65 0.61 0.59 0.56 0.53 0.54 0.54 0.55 0.62 0.64 0.60 0.60 0.61 0.51 0.50 0.44 0.51 0.55 0.54 0.51 0.50 0.53 0.61
0.31 0.46 0.72 0.94 1.05 1.17 1.34 1.48 1.47 1.42 1.34 1.28 1.19 1.04 0.95 0.82 0.70 0.66 0.61 0.64 0.63 0.63 0.59 0.56 0.52 0.50 0.52 0.51 0.57 0.61 0.58 0.55 0.60 0.59 0.48 0.39 0.36 0.48 0.53 0.49 0.49 0.50 0.57
0.27 0.33 0.50 0.78 0.95 1.03 1.12 1.32 1.42 1.37 1.36 1.34 1.29 1.20 1.03 0.87 0.79 0.75 0.75 0.72 0.73 0.72 0.69 0.63 0.58 0.52 0.51 0.50 0.52 0.62 0.65 0.59 0.53 0.57 0.54 0.50 0.47 0.41 0.40 0.49 0.50 0.52 0.55
0.27 0.29 0.34 0.62 0.84 0.98 1.11 1.28 1.39 1.37 1.35 1.33 1.33 1.31 1.26 1.14 1.04 0.90 0.85 0.81 0.80 0.79 0.74 0.69 0.66 0.60 0.56 0.53 0.51 0.55 0.58 0.59 0.55 0.54 0.51 0.49 0.52 0.49 0.43 0.38 0.43 0.50 0.57
0.29 0.28 0.32 0.44 0.70 0.86 0.98 1.15 1.32 1.33 1.33 1.35 1.33 1.30 1.35 1.30 1.20 1.04 0.93 0.89 0.87 0.84 0.81 0.75 0.70 0.65 0.60 0.57 0.56 0.56 0.57 0.58 0.58 0.58 0.55 0.50 0.47 0.45 0.43 0.40 0.43 0.44 0.53
0.32 0.30 0.29 0.31 0.44 0.60 0.79 0.98 1.19 1.27 1.31 1.32 1.29 1.30 1.27 1.30 1.30 1.22 1.06 0.95 0.94 0.93 0.88 0.85 0.79 0.75 0.68 0.61 0.58 0.55 0.55 0.57 0.58 0.58 0.55 0.57 0.55 0.53 0.51 0.46 0.45 0.44 0.53
0.38 0.39 0.40 0.35 0.36 0.52 0.58 0.74 0.95 1.15 1.26 1.27 1.27 1.31 1.31 1.28 1.30 1.32 1.28 1.14 1.05 1.02 1.01 0.96 0.93 0.90 0.86 0.78 0.70 0.66 0.63 0.62 0.61 0.58 0.59 0.57 0.57 0.55 0.54 0.48 0.46 0.44 0.50
0.41 0.39 0.39 0.46 0.47 0.58 0.68 0.72 0.77 0.89 1.03 1.14 1.20 1.23 1.26 1.28 1.24 1.27 1.30 1.30 1.23 1.15 1.08 1.04 0.98 0.94 0.90 0.84 0.79 0.73 0.70 0.67 0.64 0.60 0.59 0.56 0.55 0.55 0.55 0.54 0.53 0.49 0.44
0.41 0.43 0.43 0.41 0.45 0.59 0.69 0.73 0.77 0.79 0.88 0.90 0.93 1.01 1.07 1.12 1.15 1.20 1.19 1.22 1.26 1.28 1.20 1.11 1.06 0.99 0.94 0.89 0.83 0.79 0.77 0.74 0.72 0.67 0.62 0.59 0.59 0.60 0.59 0.57 0.58 0.57 0.52
0.46 0.46 0.47 0.50 0.46 0.45 0.46 0.51 0.70 0.80 0.82 0.86 0.91 0.92 0.93 0.97 1.01 1.06 1.16 1.20 1.25 1.23 1.22 1.20 1.13 1.07 1.01 0.95 0.90 0.86 0.84 0.77 0.75 0.72 0.67 0.63 0.63 0.60 0.60 0.60 0.59 0.57 0.57
0.50 0.51 0.50 0.49 0.51 0.52 0.50 0.48 0.48 0.54 0.74 0.89 0.91 0.94 0.94 0.95 0.95 0.95 1.02 1.14 1.18 1.18 1.18 1.18 1.18 1.14 1.11 1.02 0.93 0.95 0.87 0.79 0.76 0.72 0.69 0.65 0.63 0.60 0.60 0.59 0.57 0.56 0.59
0.51 0.53 0.53 0.52 0.51 0.51 0.53 0.53 0.53 0.51 0.53 0.61 0.73 0.81 0.84 0.86 0.85 0.91 0.90 0.94 1.07 1.17 1.17 1.15 1.11 1.14 1.16 1.11 1.06 0.99 0.87 0.82 0.79 0.78 0.73 0.68 0.64 0.61 0.61 0.59 0.55 0.57 0.51
0.52 0.53 0.54 0.55 0.56 0.55 0.53 0.52 0.52 0.56 0.56 0.58 0.66 0.69 0.78 0.80 0.84 0.89 0.91 0.94 1.00 1.06 1.08 1.09 1.14 1.13 1.16 1.10 1.05 1.00 0.94 0.87 0.82 0.82 0.75 0.70 0.67 0.65 0.63 0.59 0.57 0.50 0.49
0.50 0.52 0.54 0.55 0.56 0.57 0.57 0.55 0.54 0.54 0.58 0.58 0.63 0.68 0.77 0.84 0.85 0.87 0.89 0.83 0.92 0.97 1.06 1.02 1.06 1.12 1.11 1.07 1.02 0.97 0.94 0.88 0.84 0.79 0.76 0.73 0.69 0.67 0.65 0.61 0.57 0.57 0.58
0.52 0.53 0.54 0.56 0.55 0.56 0.56 0.57 0.56 0.54 0.59 0.59 0.60 0.69 0.76 0.81 0.85 0.84 0.80 0.81 0.84 0.91 0.93 0.98 0.99 1.03 1.03 1.05 1.01 0.96 0.92 0.89 0.84 0.81 0.79 0.75 0.74 0.73 0.71 0.68 0.65 0.58 0.54
0.48 0.51 0.52 0.53 0.54 0.55 0.57 0.56 0.55 0.57 0.59 0.62 0.64 0.68 0.73 0.77 0.78 0.78 0.80 0.77 0.81 0.83 0.82 0.87 0.93 0.95 0.93 1.01 0.95 0.97 0.90 0.83 0.80 0.79 0.76 0.78 0.77 0.76 0.74 0.68 0.65 0.55 0.57
0.45 0.45 0.48 0.48 0.50 0.53 0.56 0.59 0.57 0.57 0.59 0.61 0.65 0.68 0.71 0.72 0.75 0.75 0.77 0.80 0.79 0.77 0.76 0.76 0.81 0.83 0.90 0.87 0.91 0.87 0.83 0.80 0.79 0.77 0.76 0.74 0.74 0.71 0.59 0.62 0.56 0.57 0.50
0.44 0.46 0.45 0.45 0.46 0.47 0.54 0.56 0.56 0.58 0.58 0.58 0.61 0.66 0.71 0.70 0.75 0.74 0.74 0.76 0.77 0.74 0.73 0.75 0.76 0.78 0.77 0.82 0.82 0.79 0.79 0.76 0.75 0.75 0.74 0.70 0.62 0.59 0.62 0.54 0.48 0.48 0.47
0.44 0.44 0.45 0.45 0.44 0.45 0.51 0.50 0.50 0.51 0.48 0.51 0.58 0.65 0.69 0.71 0.72 0.77 0.76 0.76 0.76 0.75 0.75 0.73 0.76 0.80 0.77 0.78 0.78 0.75 0.76 0.72 0.70 0.70 0.67 0.60 0.63 0.63 0.52 0.49 0.48 0.41 0.41
0.44 0.44 0.43 0.42 0.43 0.45 0.47 0.45 0.45 0.44 0.46 0.48 0.52 0.59 0.65 0.69 0.73 0.76 0.78 0.76 0.74 0.74 0.73 0.72 0.73 0.74 0.76 0.76 0.76 0.72 0.70 0.67 0.65 0.62 0.55 0.61 0.57 0.55 0.54 0.49 0.43 0.39 0.39
0.38 0.43 0.42 0.41 0.40 0.39 0.39 0.38 0.39 0.45 0.46 0.46 0.50 0.55 0.59 0.63 0.68 0.72 0.75 0.75 0.72 0.70 0.69 0.69 0.69 0.71 0.72 0.74 0.71 0.72 0.70 0.66 0.55 0.49 0.57 0.56 0.59 0.57 0.52 0.46 0.43 0.41 0.38
0.32 0.35 0.38 0.42 0.42 0.41 0.40 0.36 0.38 0.41 0.43 0.46 0.48 0.52 0.56 0.59 0.63 0.66 0.68 0.69 0.70 0.68 0.67 0.66 0.66 0.67 0.68 0.69 0.69 0.67 0.62 0.54 0.47 0.51 0.54 0.57 0.55 0.52 0.47 0.43 0.42 0.39 0.34
0.29 0.31 0.33 0.34 0.39 0.41 0.41 0.40 0.40 0.41 0.40 0.43 0.46 0.50 0.52 0.55 0.59 0.62 0.66 0.68 0.67 0.65 0.63 0.64 0.64 0.64 0.64 0.65 0.66 0.61 0.55 0.52 0.52 0.55 0.56 0.55 0.52 0.47 0.43 0.40 0.37 0.34 0.31
0.27 0.28 0.29 0.31 0.31 0.35 0.38 0.40 0.40 0.40 0.39 0.40 0.43 0.46 0.49 0.52 0.55 0.58 0.60 0.64 0.67 0.68 0.65 0.64 0.64 0.63 0.60 0.62 0.61 0.58 0.55 0.53 0.54 0.55 0.52 0.50 0.45 0.40 0.37 0.35 0.32 0.31 0.29
0.24 0.25 0.28 0.30 0.32 0.34 0.35 0.37 0.40 0.40 0.38 0.36 0.37 0.42 0.46 0.48 0.51 0.53 0.55 0.62 0.64 0.66 0.67 0.66 0.65 0.63 0.62 0.62 0.59 0.53 0.53 0.54 0.53 0.48 0.47 0.44 0.39 0.36 0.34 0.31 0.29 0.28 0.26
Wind_Speed
20 19 20 19 20 26 33 34 35 35 35 36 36 35 35 34 34 33 32 31 30 29 27 26 25 24 23 22 21 19 18 17 17 15 14 13 13 13 13 12 11 11 10
22 23 22 23 23 26 29 30 34 35 35 35 35 35 35 34 34 34 33 33 32 31 29 28 27 27 26 25 25 24 22 21 20 19 17 17 17 16 16 15 14 14 13
24 24 24 25 26 27 29 31 33 34 34 34 35 34 34 34 35 35 35 33 33 33 31 30 29 29 29 28 27 26 25 24 24 23 20 20 20 19 19 18 17 17 16
26 25 25 26 28 29 32 30 33 34 36 34 35 35 34 33 34 34 34 33 34 34 34 33 32 31 31 30 30 30 29 27 26 26 24 23 21 21 21 21 20 19 19
28 28 27 26 28 29 30 33 34 33 34 35 36 34 34 33 33 33 34 34 34 34 33 32 33 32 32 32 32 31 31 30 29 29 27 25 24 23 22 23 23 22 21
21 28 29 28 27 28 30 31 34 33 33 35 36 34 34 33 32 33 33 33 33 32 32 32 32 32 33 33 33 33 33 32 31 30 30 28 26 26 25 24 25 24 23
12 18 26 29 28 30 31 32 34 35 35 36 36 36 35 34 35 34 35 34 34 33 33 33 33 33 32 32 32 33 33 33 32 32 31 32 30 28 27 26 25 24 25
9 10 15 22 27 29 30 32 34 35 36 36 36 37 37 36 35 36 36 36 36 36 34 34 35 34 34 34 33 33 33 33 33 33 33 32 32 30 29 28 27 26 27
11 10 10 12 19 25 28 30 31 34 35 36 37 37 37 38 37 38 37 37 37 37 37 37 37 36 36 36 35 34 34 33 33 32 32 32 31 31 30 30 30 29 28
10 11 11 11 13 17 22 26 28 31 33 35 36 37 38 39 39 39 41 42 41 40 40 40 40 39 38 37 36 35 35 35 34 32 31 31 30 30 29 29 30 30 29
11 10 10 10 11 12 15 20 23 29 30 32 34 35 36 38 39 40 40 42 43 44 43 43 42 42 40 40 39 37 37 34 33 32 31 30 30 29 29 29 29 29 29
12 11 10 10 11 12 12 13 16 21 27 31 34 35 36 37 38 39 41 42 44 44 43 44 43 42 40 40 39 37 36 34 33 31 30 30 29 29 29 28 27 28 29
13 13 13 13 13 13 13 14 15 16 19 23 27 31 34 37 38 39 39 41 41 41 41 41 42 41 41 42 41 36 36 34 34 33 31 30 30 28 29 28 28 29 29
16 16 16 15 16 16 16 16 17 18 19 21 24 26 28 30 32 34 35 37 39 40 40 40 40 40 37 37 36 38 39 36 34 32 31 31 30 29 28 29 29 29 28
19 19 19 19 19 19 21 21 22 22 22 22 24 26 27 27 29 31 32 34 35 38 39 39 39 40 40 38 36 34 35 37 34 31 31 29 30 30 30 29 28 28 27
23 22 23 23 23 23 24 26 27 27 26 25 25 26 27 28 28 28 30 31 32 34 35 36 38 38 40 37 35 33 31 32 35 31 29 28 27 25 25 25 24 25 27
26 26 26 25 26 26 27 27 27 27 27 28 27 27 27 27 28 28 28 29 30 31 33 34 35 37 38 39 35 33 33 30 30 30 29 26 26 25 24 23 23 24 24
29 30 30 29 29 29 28 27 26 26 26 27 28 27 27 26 26 27 27 27 28 30 30 31 33 35 35 37 37 35 32 31 30 29 29 27 26 25 25 24 23 23 22
32 32 32 31 29 27 27 26 24 23 24 25 27 28 28 27 26 26 25 26 27 27 29 29 29 30 31 33 35 34 33 31 29 30 28 28 26 24 23 23 23 22 21
32 33 32 30 29 28 27 26 25 25 25 25 26 27 28 28 27 26 25 25 25 25 26 27 28 28 28 30 30 30 32 31 30 30 29 27 26 24 22 21 21 21 21
31 30 30 30 30 29 29 28 28 27 27 25 25 25 26 27 27 26 26 25 24 23 23 24 26 27 27 27 29 29 28 29 28 27 25 24 23 22 21 20 20 21 21
31 31 31 32 32 32 31 30 29 29 27 27 25 25 25 26 27 27 26 26 26 25 23 23 23 25 26 26 27 27 26 26 25 25 23 22 22 21 20 20 20 21 21
30 31 31 33 32 31 32 31 30 29 27 26 26 25 25 25 26 26 26 26 26 25 25 25 24 25 25 25 26 26 25 24 23 23 22 21 20 20 20 20 20 20 21
29 30 32 32 32 32 32 31 30 30 29 27 27 27 26 25 25 26 27 27 27 26 27 26 25 25 24 24 25 24 25 24 23 22 21 21 20 20 19 19 19 20 21
29 30 31 32 33 33 33 33 32 31 30 29 28 27 27 27 26 26 27 27 27 28 27 27 27 26 25 25 25 25 25 24 23 22 21 21 20 20 19 19 19 20 21
28 29 30 31 32 32 32 32 32 31 30 28 28 28 27 27 27 27 25 26 26 27 27 27 27 26 26 25 25 25 25 24 23 22 21 21 20 20 19 19 20 21 22
Wind_Direction
237 228 223 218 208 194 191 199 203 204 206 209 212 216 218 220 222 223 224 225 227 228 231 233 234 235 236 236 237 238 239 241 241 244 251 257 260 263 265 266 267 270 274
240 233 226 218 212 206 203 204 206 208 209 212 214 217 219 222 223 224 226 228 229 230 232 234 236 237 238 239 240 242 243 243 242 249 253 259 262 263 264 265 266 267 269
236 233 228 221 215 210 210 212 210 210 212 215 216 218 220 224 226 227 228 230 230 232 234 235 237 239 240 240 240 241 244 244 246 245 258 260 263 258 262 262 264 265 267
233 231 228 224 221 219 220 216 213 217 218 219 218 218 223 225 227 228 230 231 233 236 236 238 240 241 242 242 244 243 246 246 247 248 256 260 260 260 262 261 262 264 266
233 231 230 225 222 220 220 218 219 218 219 221 221 224 226 227 228 229 230 232 234 236 238 239 241 242 243 244 245 245 246 247 249 250 254 258 259 260 262 261 260 262 265
235 232 230 229 228 226 222 221 219 221 222 220 223 225 227 228 229 229 231 233 234 236 237 239 240 243 245 245 246 247 247 248 250 251 252 255 258 258 261 264 260 261 265
238 232 228 229 230 228 227 226 225 225 225 225 226 228 230 231 232 232 233 234 235 237 239 240 242 244 245 246 246 247 248 249 250 250 253 254 255 258 259 260 258 261 264
235 233 231 230 230 229 228 228 227 227 227 228 230 232 233 235 236 236 236 237 238 239 241 242 244 245 246 247 246 248 248 250 251 250 252 254 255 256 256 256 255 261 266
237 234 235 231 228 228 229 230 231 231 230 231 233 235 236 236 238 238 238 239 241 242 243 245 246 247 247 247 249 248 248 249 251 251 251 253 254 255 256 256 254 261 264
239 237 236 236 231 229 232 234 234 234 234 233 236 238 238 239 241 241 241 242 243 244 245 246 247 247 248 247 247 248 249 250 251 251 250 251 252 254 255 255 257 259 263
233 237 239 238 237 235 236 238 239 238 238 237 238 240 241 241 243 243 243 244 244 246 246 247 247 247 247 247 247 247 249 245 247 247 248 250 251 252 253 256 257 260 264
236 240 243 245 244 244 245 245 244 243 242 242 242 243 244 245 245 245 246 246 246 247 247 247 246 245 244 245 245 244 240 243 244 246 248 249 250 252 254 255 257 261 266
244 248 252 253 256 253 251 250 251 252 250 247 245 246 247 247 247 247 248 246 245 245 244 244 244 245 244 245 246 242 245 244 244 245 248 250 249 253 253 255 259 264 269
250 253 254 256 259 258 256 256 256 257 257 254 251 249 248 247 246 246 247 246 245 243 243 244 243 242 244 244 249 249 243 245 242 246 249 248 252 252 254 257 262 265 269
255 258 258 261 264 263 261 262 263 263 261 260 257 253 250 249 249 248 248 248 246 243 243 242 241 241 240 245 248 247 245 244 246 247 250 248 253 255 259 261 262 265 268
257 258 262 264 267 268 267 266 266 265 262 262 261 258 253 251 251 251 249 247 246 243 241 241 240 240 239 240 244 243 244 241 243 245 246 250 251 252 257 260 259 265 270
258 260 262 264 267 268 269 269 268 266 262 260 261 258 255 252 252 252 250 246 244 243 242 240 239 238 241 238 238 239 242 244 242 241 241 245 247 254 256 257 261 267 271
258 259 262 265 267 269 270 269 266 264 263 262 259 257 254 253 252 250 249 247 244 243 242 241 239 240 238 236 235 236 239 242 242 239 240 245 250 251 257 259 260 265 267
258 259 262 264 265 266 267 265 263 263 266 264 260 256 251 251 250 249 248 247 245 243 242 241 238 236 234 232 231 234 236 239 238 240 243 249 251 251 253 257 259 261 266
259 260 261 261 261 263 264 263 263 265 268 267 262 255 250 249 248 248 246 246 245 243 241 239 237 233 233 230 230 232 236 234 237 239 243 246 248 249 253 255 258 260 266
258 259 259 258 259 262 263 263 264 265 266 265 262 255 251 247 246 246 245 243 242 241 238 236 233 231 228 230 230 231 233 232 235 237 236 241 243 247 251 251 259 263 268
259 258 257 259 261 262 263 263 264 265 264 262 259 255 251 247 245 243 243 241 239 237 236 232 230 227 229 228 230 227 230 229 228 228 233 238 241 246 248 255 261 265 269
260 260 259 259 261 261 263 262 261 261 262 260 256 254 251 248 245 242 241 240 237 235 234 230 227 227 227 228 225 225 222 223 225 229 232 235 240 245 251 258 261 265 271
261 260 260 261 260 262 263 262 261 259 257 257 255 252 250 248 245 243 241 239 237 235 233 228 225 223 224 225 221 218 219 222 224 227 232 236 241 247 252 257 263 268 274
265 263 262 260 261 262 261 262 260 259 256 254 253 251 248 247 245 243 242 239 238 235 227 224 221 221 223 220 217 219 221 223 225 229 233 238 242 246 252 258 265 271 277
267 266 264 262 262 262 261 260 258 256 254 253 251 249 247 245 242 241 240 238 234 229 223 221 221 221 218 216 217 219 220 222 225 232 236 239 242 246 253 259 266 273 280